Flag for Austria Weather past 2 weeks in Bischofshofen, Salzburg, Austria

Now
37 °F

Light rain. Partly cloudy.


Feels Like: 30 °F
Forecast: 34 / 51 °F
Wind: 12 mph from North

Location: Salzburg-Flughafen

Current Time: Dec 21, 2014 at 7:28:15 AM

Latest Report: Dec 21, 2014 at 6:50 AM


Visibility: N/A

Pressure: 30.45 "Hg

Humidity: 87%

Dew point: 34 °F

Location of BischofshofenLocation

Historic Weather in Bischofshofen — Graph

°F

Bischofshofen temperature yesterday

Maximum temperature yesterday: 50 °F (at 1:50 AM)
Minimum temperature yesterday: 41 °F (at 10:20 PM)
Average temperature yesterday: 46 °F

Past Weeks' High & Low Weather Summary

 TemperatureHumidityPressure
High55 °F (Dec 19, 1:50 PM)100% (Dec 6, 6:20 AM)30.42 "Hg (Dec 6, 6:20 AM)
Low23 °F (Dec 10, 7:20 AM)46% (Dec 12, 12:20 PM)29.83 "Hg (Dec 12, 12:50 PM)
Average40 °F81%30.07 "Hg
* Reported Dec 6 6:20 AM — Dec 21 6:20 AM, Bischofshofen, Weather by CustomWeather, © 2014

Note: Actual official high and low records may vary slightly from our data, if they occured in-between our weather recording intervals... More about our weather records

Advertising

Bischofshofen weather history for previous 24 hours

 ConditionsComfort  
Time TempWeatherWind HumidityBarometerVisibility
6:20 AM
Dec 21
39 °FSprinkles. Partly cloudy.9 mph81%30.42 "HgN/A
5:50 AM39 °FSprinkles. Passing clouds.10 mph81%30.42 "HgN/A
5:20 AM39 °FSprinkles. Passing clouds.18 mph81%30.39 "HgN/A
4:50 AM41 °FSprinkles. Passing clouds.14 mph70%30.39 "HgN/A
4:20 AM39 °FLight rain. Passing clouds.10 mph81%30.36 "HgN/A
3:50 AM39 °FSprinkles. Passing clouds.9 mph81%30.36 "HgN/A
3:20 AM39 °FSprinkles. Passing clouds.16 mph75%30.33 "HgN/A
2:50 AM41 °FSprinkles. Partly cloudy.20 mph70%30.33 "HgN/A
2:20 AM41 °FSprinkles. Partly cloudy.16 mph70%30.30 "HgN/A
1:50 AM41 °FSprinkles. Partly cloudy.17 mph70%30.30 "HgN/A
1:20 AM41 °FSprinkles. Passing clouds.20 mph70%30.30 "HgN/A
12:50 AM43 °FSprinkles. Passing clouds.17 mph61%30.27 "HgN/A
12:20 AM41 °FPassing clouds.18 mph70%30.27 "HgN/A
11:50 PM
Dec 20
41 °FPassing clouds.16 mph70%30.27 "HgN/A
11:20 PM43 °FSprinkles. Partly cloudy.18 mph61%30.27 "HgN/A
10:20 PM41 °FSprinkles. Partly cloudy.25 mph70%30.27 "HgN/A
9:50 PM45 °FPartly cloudy.18 mph53%30.24 "HgN/A
9:20 PM43 °FSprinkles. Partly cloudy.18 mph61%30.21 "HgN/A
8:50 PM45 °FSprinkles. Partly cloudy.18 mph53%30.21 "HgN/A
8:20 PM45 °FSprinkles. Partly cloudy.17 mph57%30.21 "HgN/A
7:50 PM45 °FSprinkles. Passing clouds.21 mph61%30.21 "HgN/A
7:20 PM43 °FSprinkles. Passing clouds.14 mph66%30.21 "HgN/A
6:50 PM43 °FSprinkles. Passing clouds.14 mph71%30.21 "HgN/A
6:20 PM43 °FSprinkles. Passing clouds.10 mph71%30.18 "HgN/A
5:50 PM43 °FPassing clouds.12 mph71%30.18 "HgN/A
5:20 PM43 °FPassing clouds.13 mph76%30.18 "HgN/A
4:50 PM45 °FPassing clouds.16 mph71%30.15 "HgN/A
4:20 PM46 °FPassing clouds.15 mph66%30.15 "HgN/A
3:50 PM46 °FPartly sunny.15 mph71%30.15 "HgN/A
3:20 PM48 °FPartly sunny.13 mph71%30.15 "HgN/A
2:50 PM48 °FScattered clouds.15 mph66%30.15 "HgN/A
2:20 PM48 °FScattered clouds.13 mph71%30.15 "HgN/A
1:50 PM48 °FPartly sunny.6 mph71%30.15 "HgN/A
1:20 PM48 °FPartly sunny.6 mph71%30.15 "HgN/A
12:50 PM46 °FPartly sunny.3 mph76%30.18 "HgN/A
12:20 PM50 °FPartly sunny.1 mph67%30.21 "HgN/A
11:50 AM48 °FPartly sunny.3 mph66%30.21 "HgN/A
11:20 AM46 °FPartly sunny.3 mph76%30.24 "HgN/A
10:50 AM46 °FPartly sunny.6 mph71%30.24 "HgN/A
10:20 AM45 °FPartly sunny.9 mph76%30.27 "HgN/A
9:50 AM45 °FScattered showers. Broken clouds.7 mph76%30.27 "HgN/A
9:20 AM45 °FBroken clouds.8 mph71%30.27 "HgN/A
8:50 AM45 °FScattered showers. Broken clouds.7 mph76%30.27 "HgN/A
8:20 AM45 °FSprinkles. Broken clouds.9 mph71%30.27 "HgN/A
7:50 AM45 °FPassing clouds.6 mph71%30.27 "HgN/A
7:20 AM46 °FPassing clouds.7 mph66%30.27 "HgN/A
Weather by CustomWeather, © 2014

See weather overviewHow to use our weather pages